{"data":{"norad_id":66968,"intl_designator":"2025-288K","name":"STARLINK-36152","alt_names":[],"object_type":"PAYLOAD","status":"ACTIVE","operator":null,"country":"US","launch_date":"2025-12-08","launch_site_code":"AFETR","launch_vehicle":null,"mission":null,"orbit_class":"UNKNOWN","rcs_meters":null,"size_class":null,"mass_kg":null,"dimensions":null,"purposes":["comms"],"wikipedia_slug":null,"has_3d_model":false,"image_url":null,"decayed_at":null,"tle_current":{"epoch":"2026-05-25T04:25:40.063008Z","epoch_age_seconds":55162,"freshness":"FRESH","line1":"1 66968U 25288K   26145.18449147  .00019370  00000+0  71143-3 0  9994","line2":"2 66968  43.0019 311.6813 0001444 271.0742  88.9944 15.27585523 26983","mean_motion":15.27585523,"eccentricity":0.0001444,"inclination_deg":43.0019,"raan_deg":311.6813,"arg_perigee_deg":271.0742,"mean_anomaly_deg":88.9944,"bstar":0.00071143,"rev_number":2698,"period_min":94.266407891324,"perigee_km":482.04180535638,"apogee_km":484.0233111248,"semimajor_km":6861.1695582406,"source":"CELESTRAK","updated_at":"2026-05-25T13:38:21.394985Z"}}}